Terminal Aerodrome Forecast
Issued by NWS

Home | Current Version | Previous Version | Graphics & Text | Print | Product List | Glossary On
Versions: 1 2 3 4 5 6 7 8 9 10 11 12 13 14 15 16
689
FTUS43 KMPX 190520
TAFRNH
TAF
KRNH 190520Z 1906/2006 VRB02KT 3SM BR SKC
     FM190900 00000KT 2SM BR SCT002
     FM191400 25005KT P6SM SKC
     FM200000 VRB02KT P6SM SKC=

USA.gov is the U.S. government's official web portal to all federal, state and local government web resources and services.